• MPC Preparation (Info)

  • MPEC 2016-N137: 2012 FZ78

    The following Minor Planet Electronic Circular may be linked-to from your own Web pages, but must not otherwise be redistributed electronically.

    A form allowing access to any MPEC is at the bottom of this page.


    Read MPEC 2016-N136 Read MPEC 2016-N138


    M.P.E.C. 2016-N137                               Issued 2016 July 15, 19:40 UT
    
         The Minor Planet Electronic Circulars contain information on unusual
             minor planets and routine data on comets.  They are published
        on behalf of Division F of the International Astronomical Union by the
              Minor Planet Center, Smithsonian Astrophysical Observatory,
                              Cambridge, MA 02138, U.S.A.
    
                 Prepared using the Tamkin Foundation Computer Network
    
                                  MPC@CFA.HARVARD.EDU
                URL https://www.minorplanetcenter.net/    ISSN 1523-6714
    
                                       2012 FZ78
    
    Additional Observations:
         K12F78Z  C2012 02 28.52141 13 00 17.545-07 39 55.36         21.4 wLEN137F51
         K12F78Z  C2012 02 28.53578 13 00 17.385-07 39 55.06         21.5 wLEN137F51
         K12F78Z  C2012 02 28.55020 13 00 17.226-07 39 54.62         21.5 wLEN137F51
         K12F78Z  C2012 02 28.56463 13 00 17.057-07 39 54.37         21.5 wLEN137F51
         K12F78Z  C2014 01 09.64251 14 13 01.085-20 28 56.14         22.0 wLEN137F51
         K12F78Z  C2014 01 09.64663 14 13 01.129-20 28 56.91         22.4 wLEN137F51
         K12F78Z  C2014 01 09.65072 14 13 01.148-20 28 57.12         22.4 wLEN137F51
         K12F78Z  C2014 01 09.65482 14 13 01.222-20 28 57.73         22.0 wLEN137F51
         K12F78Z  C2014 04 05.47322 14 09 08.764-21 40 10.52         22.1 wLEN137F51
         K12F78Z  C2014 04 05.48512 14 09 08.580-21 40 10.51         22.2 wLEN137F51
         K12F78Z  C2014 04 05.49701 14 09 08.407-21 40 09.96         21.9 wLEN137F51
         K12F78Z  C2014 04 05.50891 14 09 08.235-21 40 09.56         21.8 wLEN137F51
         K12F78Z  C2014 05 07.39708 14 01 03.367-21 17 15.78         21.6 rLEN137F51
         K12F78Z  C2014 05 07.40897 14 01 03.187-21 17 15.23         21.8 rLEN137F51
         K12F78Z  C2014 05 07.41951 14 01 03.042-21 17 14.59         21.7 rLEN137F51
         K12F78Z  C2014 05 07.43006 14 01 02.868-21 17 14.07         22.0 rLEN137F51
         K12F78Z  C2014 05 23.31389 13 57 25.785-21 01 59.96         21.9 wLEN137F51
         K12F78Z  C2014 05 23.32517 13 57 25.640-21 01 59.32         21.8 wLEN137F51
         K12F78Z  C2014 05 23.34772 13 57 25.358-21 01 57.97         22.1 wLEN137F51
    
    Observer details:
    F51 Pan-STARRS 1, Haleakala.  Observers B. Gibson, T. Goggia, N. Primak,
        A. Schultz, M. Willman.  Measurers K. Chambers, S. Chastel, Y.-T. Chen,
        L. Denneau, H. Flewelling, M. Holman, M. Huber, R. Jedicke, M. Lackner,
        E. Lilly, H.-W. Lin, E. Magnier, M. Micheli, M. Payne, P. Veres,
        R. Wainscoat, C. Waters, R. Weryk.  1.8-m Ritchey-Chretien + CCD.
    
    Orbital elements:
    2012 FZ78
    Epoch 2016 July 31.0 TT = JDT 2457600.5                 MPC
    M  28.84628              (2000.0)            P               Q
    n   0.01176949     Peri.  155.29365     -0.96444758     -0.25928954
    a  19.1409807      Node    10.08845     +0.16664620     -0.74672135
    e   0.4506805      Incl.   16.95618     +0.20510948     -0.61251626
    P  83.74           H   11.0           G   0.15           U   1
    Residuals in seconds of arc
    120228 F51  0.0   0.0     120414 F51  0.1+  0.1+    140405 F51  0.1+  0.0
    120228 F51  0.1+  0.1-    120422 G96  0.1+  0.3+    140405 F51  0.0   0.3-
    120228 F51  0.1+  0.0     120422 G96  0.2+  0.2+    140405 F51  0.0   0.0
    120228 F51  0.0   0.0     120422 G96  0.5-  0.1+    140405 F51  0.0   0.1+
    120329 G96  0.2+  0.4-    120422 G96  0.0   0.3-    140507 F51  0.1-  0.1+
    120329 G96  0.0   0.1-    120517 688  0.4-  0.1+    140507 F51  0.1-  0.0
    120329 G96  0.6-  0.2+    120517 688  0.1-  0.1+    140507 F51  0.1+  0.1+
    120329 G96  0.7-  0.1-    140109 F51  0.0   0.1+    140507 F51  0.1-  0.0
    120414 F51  0.0   0.0     140109 F51  0.0   0.1-    140523 F51  0.1+  0.0
    120414 F51  0.0   0.0     140109 F51  0.3-  0.1+    140523 F51  0.0   0.0
    120414 F51  0.1+  0.0     140109 F51  0.1+  0.0     140523 F51  0.1+  0.0
    
    Ephemeris:
    2012 FZ78                a,e,i = 19.14, 0.45, 17                 q = 10.515
    Date    TT    R. A. (2000) Decl.     Delta      r     Elong.  Phase     V
    2016 06 15    15 05 30.9 -30 56 27  12.4318 13.2878   146.2     2.4    22.4
    ...
    2016 06 30    15 03 08.1 -30 41 50  12.6110 13.3160   132.3     3.2    22.4
    ...
    2016 07 08    15 02 17.4 -30 34 29  12.7253 13.3310   124.8     3.6    22.5
    ...
    2016 07 14    15 01 52.2 -30 29 23  12.8180 13.3423   119.1     3.8    22.5
    2016 07 15    15 01 49.1 -30 28 34  12.8339 13.3442   118.2     3.8    22.5
    2016 07 16    15 01 46.3 -30 27 46  12.8500 13.3461   117.3     3.9    22.5
    ...
    2016 07 22    15 01 36.3 -30 23 19  12.9491 13.3574   111.7     4.1    22.6
    ...
    2016 07 30    15 01 41.0 -30 18 15  13.0869 13.3725   104.2     4.2    22.6
    ...
    2016 08 14    15 02 45.6 -30 12 01  13.3556 13.4008    90.4     4.3    22.6
    
    A. U. Tomatic                (C) Copyright 2016 MPC           M.P.E.C. 2016-N137
    

    Read MPEC 2016-N136 Read MPEC 2016-N138


    MPEC number:

    Enter an MPEC number in one of the following forms:

    • 1997-B01 (the full form)
    • J97B01 (the packed version of the full form)
    • B01 (the abbreviated form)